Regional Weather Roundup
Issued by NWS Sterling, VA

Home | Current Version | Previous Version | Graphics & Text | Print | Product List | Glossary On
Versions: 1 2 3 4 5 6 7 8 9 10 11 12 13 14 15 16 17 18 19 20 21 22 23 24 25 26 27
000
ASUS41 KLWX 220011
RWRLWX

REGIONAL WEATHER ROUNDUP
NATIONAL WEATHER SERVICE BALTIMORE MD/WASHINGTON DC
800 PM EDT WED JUN 21 2017

Note: "FAIR" indicates few or no clouds below 12,000 feet
with no significant weather and/or obstructions to visibility.
 TC=TEMPERATURE CELSIUS

 * =Non NWS site. Station does not report precipitation (e.g. rain,
    snow, etc.), thunder, or fog.

DCZ001-MDZ009-015-VAZ040>042-051-053>054-220100-
WASHINGTON METRO

CITY           SKY/WX    TMP DP  RH WIND       PRES   REMARKS
WASHINGTON NAT CLOUDY    85  67  54 SW8       29.95R
DULLES         CLOUDY    83  62  49 SW5       29.95S
ANDREWS AFB    MOCLDY    82  65  57 SW10      29.95R
FT BELVOIR     MOCLDY    82  68  61 CALM      29.94S
QUANTICO       CLEAR     84  74  71 SW7       29.95S HX  91
COLLEGE PARK*  PTCLDY    84  62  46 SW3       29.94S
LEESBURG*      PTCLDY    82  66  57 W3        29.96S
MANASSAS*      MOCLDY    83  67  58 S3        29.95S
GAITHERSBURG*  MOCLDY    78  63  59 CALM      29.98R

$$

MDZ006>007-011-014-220100-
BALTIMORE METRO

CITY           SKY/WX    TMP DP  RH WIND       PRES   REMARKS
BWI AIRPORT    CLOUDY    75  64  68 NW3       29.95R
MD SCIENCE CTR   N/A     76  66  71 MISG      29.95F
MARTIN STATE   MOCLDY    72  70  94 CALM      29.96R
ANNAPOLIS      CLOUDY    81  68  64 N13       29.95R
FORT MEADE*    PTCLDY    77  61  57 CALM      29.97R

$$

MDZ012-015-019>023-220100-
MARYLAND EASTERN SHORE

CITY           SKY/WX    TMP DP  RH WIND       PRES   REMARKS
OCEAN CITY     CLEAR     78  71  79 SW12G23   29.97R
SALISBURY      CLEAR     78  73  84 S9        29.96R
BAY BRIDGE AP* CLOUDY    75  66  73 NE9       29.96R
CAMBRIDGE*     CLEAR     82  66  57 SW6       29.95S
EASTON*        MOCLDY    82  64  54 W7        29.98R

$$

MDZ017>025-220100-
SOUTHERN MARYLAND

CITY           SKY/WX    TMP DP  RH WIND       PRES   REMARKS
PATUXENT RIVER MOCLDY    81  69  67 S7        29.95S
ST INIGOES     CLEAR     83  71  67 S10       29.95S
LEONARDTOWN*   PTCLDY    79  68  69 CALM      29.98R

$$

MDZ003>005-220100-
NORTH CENTRAL MARYLAND

CITY           SKY/WX    TMP DP  RH WIND       PRES   REMARKS
FREDERICK*     MOCLDY    73  63  68 E3        29.99R
HAGERSTOWN APT PTCLDY    76  64  66 NE6       29.97R
WESTMINSTER*   PTCLDY    73  68  83 CALM      29.97S

$$

MDZ501>502-220100-
WESTERN MARYLAND

CITY           SKY/WX    TMP DP  RH WIND       PRES   REMARKS
OAKLAND*       NOT AVBL
CUMBERLAND*    CLOUDY    79  63  57 CALM      30.01S

$$

VAZ025>031-220100-
SHENANDOAH VALLEY

CITY           SKY/WX    TMP DP  RH WIND       PRES   REMARKS
WINCHESTER*    MOCLDY    81  57  44 W5        29.97S
FRONT ROYAL*   CLEAR     79  61  53 CALM      29.96S
LURAY*         PTCLDY    79  68  69 CALM      29.98S
NEW MARKET*    MOCLDY    75  63  65 CALM      29.97R
STAUNTON*      CLOUDY    78  62  57 SW3       30.03S
WAYNESBORO*    CLOUDY    78  65  63 SW8       30.03S

$$

WVZ021-048>050-054>055-220100-
EASTERN WEST VIRGINIA PANHANDLE

CITY           SKY/WX    TMP DP  RH WIND       PRES   REMARKS
MARTINSBURG    CLOUDY    78  61  55 NE8       29.96R
PETERSBURG*    PTCLDY    77  64  63 CALM      29.99S

$$

VAZ036>039-050-220100-
CENTRAL FOOTHILLS

CITY           SKY/WX    TMP DP  RH WIND       PRES   REMARKS
CHARLOTTESVILL CLOUDY    83  66  56 SW7       29.98R
CULPEPER*      CLEAR     83  66  57 CALM      29.96S
ORANGE*        CLEAR     81  64  57 SW6       29.97S
GORDONSVILLE*  CLOUDY    82  67  62 SW6       29.97S
WARRENTON*     PTCLDY    83  61  47 S3        29.95S

$$

VAZ055>057-220100-
NORTH AND CENTRAL PIEDMONT

CITY           SKY/WX    TMP DP  RH WIND       PRES   REMARKS
FREDERICKSBRG* CLEAR     85  70  60 SW7       29.95S
STAFFORD*      CLEAR     81  67  62 S5        30.00R

$$

NCZ024-NYZ072-PAZ021-071-VAZ022-071-220100-
OTHER REGIONAL OBSERVATIONS

CITY           SKY/WX    TMP DP  RH WIND       PRES   REMARKS
NEW YORK CITY  CLEAR     80  58  46 W8        29.90S
PHILADELPHIA   MOCLDY    75  63  66 W9        29.92S
PITTSBURGH     MOCLDY    77  63  61 W6        29.97S
ROANOKE        PTCLDY    82  62  50 SW6       30.05S
RICHMOND       MOCLDY    82  70  66 SW13      30.00R
RALEIGH        MOCLDY    80  70  71 W5        30.06R

$$

ANZ530>537-220100-
MARINE OBSERVATIONS

STATION/POSITION TIME  TEMP    WIND        PRES
                       AIR SEA DIR/SP/G
                 (UTC) (F)     (DEG/KT/KT) (MB)
THOMAS PT LIGHT  0000   82 78  230/  7/  8   N/A
BALT KEY BRIDGE  2348   74     280/  4/  5 1014.0R
COVE POINT       2348   81     220/  9/ 10 1014.8F
LEWISETTA        2348   83 80  230/ 10/ 12 1014.6S
SOLOMONS ISLAND  2348   81 76  210/  7/  8   N/A
PINEY POINT      2342          230/ 11/ 13   N/A

$$





USA.gov is the U.S. government's official web portal to all federal, state and local government web resources and services.